Вернуться в каталог

COSMOS 1191 DEB

LostHEO
NORAD 32995·DEBRIS·🇷🇺 Russia

Запущен Jul 2, 1980 с Plesetsk Cosmodrome

Loading…

Ближайшие Пролёты (ближайшие 24 часа)

TLE

УстаревшееSource: Space-Track

Эпоха: Aug 31, 2010, 03:40 UTC

1 32995U 80057N   10243.15328617 -.00000454  00000-0  00000+0 0  9994
2 32995  67.0497 151.2841 5736210 123.8938   4.9586  1.97687495 78310

Отслеживайте COSMOS 1191 DEB в реальном времени с AllMySat

Download on the App Store